Terminal Aerodrome Forecast
Issued by NWS

Home | Current Version | Previous Version | Text Only | Print | Product List | Glossary On
Versions: 1 2 3 4 5 6 7 8 9 10 11 12 13 14 15 16 17 18 19 20 21 22 23 24
293
FTPQ31 PGUM 192321
TAFGSN
TAF
PGSN 192321Z 2000/2024 07014G27KT P6SM VCSH SCT022 SCT050
      TEMPO 2000/2003 4SM -SHRA SCT018 BKN030
     FM200900 07013KT P6SM SCT025 SCT050=

USA.gov is the U.S. government's official web portal to all federal, state and local government web resources and services.